Showing default

YAOGAN-36 04B, 54748

Orbit data source: Space-Track

YAOGAN-36 04B, 54748 is a payload satellite owned by PLA GAD (CN) in LEO that was launched on Wed, 14 Dec 2022 UTC via a CHANG ZHENG 2D launch vehicle from the Xichang Space Center, China (XSC). Payload-class satellites include a variety of spacecraft equipped with specific instruments for various scientific and technological missions. These include communications satellites like Starlink; space stations such as the ISS; scientific satellites like the Hubble; Earth observation satellites from companies like Planet Labs, Umbra, and HawkEye 360; GPS; miniature CubeSats for education and research; and military/defense satellites.

Loading next visibility...
Identifier
54748, 2022-171C
Orbit
LEO
Country
Flag of CNCN / PRC
Related business
Manufacturer
SAST
Mission
Operational Defense Sigint
Bus & Motor
Unknown
Mass
~300 kg wet, ~300 kg dry
Launch date (UTC)
2022-12-14 (4 years ago)
Launch vehicle
CHANG ZHENG 2D
Launch site
Xichang Space Center, China (XSC)
Object type
Payload
Rocket body
Debris
Shape & HBR
Box + 2 Pan, 2.5 m
Radar Cross Section
11.063 m², Large (>1 m²)

Expand to show TLE details & history
Last TLE update: 2 days ago

TLE from 2 days ago
0 YAOGAN-36 04B
1 54748U 22171C   26171.43347069  .00005757  00000-0  24125-3 0  9995
2 54748  35.0027 174.5267 0005868 255.3696 104.6368 15.22859469195882
Epoch: 2026-06-20T10:24Z
TLE epoch observation values (Epoch: 2026-06-20T10:24:11.867Z)
Latitude
-0.00003°
Longitude
109.82905°
Altitude
497.149 km
Speed
7.618 km/s
True Right ascension
11h 38m 06s
True Declination
0° 00' 00"
Sunlit
Object was in daylight at epoch
Visualization orbit readout
Latitude
Unknown
Longitude
Unknown
Altitude
Unknown
Speed
Unknown
Apparent Right ascension
Unknown
Apparent Declination
Unknown
Sunlit
N/A
Visualization observer readout
Local Sidereal Time
21:52:16
Azimuth
Unknown
Elevation
Unknown
Doppler factor
Unknown
Orbital elements
Apogee altitude
504.506 km
Perigee altitude
496.434 km
Semi-major axis
6,878.607 km
Eccentricity
0.00059
Inclination
35.0027°
RAAN
174.5267°
Arg. of periapsis
255.3696°
True anomaly
104.70185°
Mean anomaly
104.6368°
Eccentric anomaly
104.66933°
Mean motion
3.80445 °/min
Orbital period
94.63 mins
BSTAR
0.00024125
Loading maneuver chart data...
Computing Atmospheric mass density...
Loading historical data...
Loading historical data...
Loading historical data...
Loading historical data...
Loading historical data...
Loading historical data...
Loading historical data...
Other satellites on launch #171 in the year 2022 (2022-12-14 UTC)

Documentation

Showing up to 5 results
|